Content
SEND FEEDBACK

Daily
Averages
Monthly
Summary
Iran

MASHHAD, IRAN


Home > Middle East > Iran
Elevation: 3214 feet     Latitude: 36 16N     Longitude: 059 38E

WEATHER
 
SELECT A DAY
Number of Records: 200,899;   Date Range: 2/9/98 - 8/31/14
 
SHARE

PRINT THIS DATA

[ ← Previous Day ]
WEATHER ALMANAC - JANUARY 11, 2013
[ Next Day → ]
[ °C ]   °F
Weather ElementAverageHighLow
Temperature37.5 °F50 °F (6:00 am)30.2 °F (7:30 pm)
Dewpoint29.3 °F41 °F (1:00 am)17 °F (9:30 pm)
Humidity72.7 %100 % (3:30 am)44 % (9:30 pm)
Barometer29.90 in30.23 in (9:30 pm)29.65 in (3:30 am)
Wind Speed12.3 mph25.3 mph (4:55 pm)
Weather ElementAverage
Visibility5.4 mi
Wind DirectionWSW (243.7 °)

Weather ElementTotal
Precipitation---
Heating Degree Days24.9 (Base 65)
Averaged from 53 records on January 11, 2013
WEATHER CONDITIONS BREAKOUT
WIND DIRECTION BREAKOUT
WEATHER BY HOUR - JANUARY 11, 2013
[ °C ]   °F
Local TimeTemperatureDewpointHumidityBarometerVisibilityWind DirectionWind SpeedGust SpeedPrecipitationEventsConditions
12:30 AM42.8 °F39.2 °F87 %29.68 in4.3 miNNE (30°)4.6 mphPartly Cloudy
1:00 AM42.8 °F41.0 °F93 %29.68 in4.3 miWest (280°)4.6 mphScattered Clouds
1:30 AM42.8 °F41.0 °F93 %29.68 in4.3 miNNW (330°)4.6 mphPartly Cloudy
2:00 AM42.8 °F41.0 °F93 %29.68 in4.3 miSSE (150°)6.9 mphPartly Cloudy
2:30 AM41.0 °F39.2 °F93 %29.68 in3.1 miWSW (240°)4.6 mphPartly Cloudy
3:00 AM41.0 °F39.2 °F93 %29.68 in3.1 miCalmScattered Clouds
3:30 AM41.0 °F41.0 °F100 %29.68 in3.1 miCalmScattered Clouds
3:30 AM41.0 °F41.0 °F99 %29.65 in3.0 miCalmMist
4:00 AM41.0 °F41.0 °F100 %29.68 in3.1 miESE (120°)4.6 mphScattered Clouds
4:30 AM42.8 °F41.0 °F93 %29.68 in3.1 miEast (90°)4.6 mphScattered Clouds
4:55 AM41.0 °F41.0 °F100 %29.68 in3.1 miNNW (330°)4.6 mphScattered Clouds
5:30 AM41.0 °F41.0 °F100 %29.68 in3.1 miCalmScattered Clouds
6:00 AM50.0 °F30.2 °F47 %29.71 in3.7 miSW (230°)9.2 mphScattered Clouds
6:30 AM48.2 °F32.0 °F54 %29.74 in3.1 miWSW (250°)6.9 mphHaze
7:00 AM41.0 °F37.4 °F87 %29.74 in4.3 miEast (100°)4.6 mphScattered Clouds
7:30 AM42.8 °F39.2 °F87 %29.77 in6.2 miCalmScattered Clouds
7:55 AM44.6 °F37.4 °F76 %29.77 in6.2 miNNW (340°)9.2 mphScattered Clouds
8:30 AM41.0 °F35.6 °F81 %29.80 in6.2 miNNW (330°)16.1 mphScattered Clouds
8:55 AM41.0 °F33.8 °F76 %29.83 in6.2 miNW (310°)16.1 mphMostly Cloudy
9:30 AM41.0 °F33.8 °F76 %29.83 in6.2 miNW (320°)16.1 mphMostly Cloudy
9:30 AM41.0 °F33.0 °F64 %29.87 in9.0 miNW (320°)15.7 mphPartly Cloudy
10:00 AM41.0 °F33.8 °F76 %29.86 in6.2 miWNW (300°)18.4 mphMostly Cloudy
10:30 AM41.0 °F33.8 °F76 %29.86 in6.2 miNNW (340°)18.4 mphMostly Cloudy
10:55 AM39.2 °F32.0 °F75 %29.86 in6.2 miWNW (290°)20.7 mphMostly Cloudy
11:30 AM39.2 °F32.0 °F75 %29.86 in6.2 miNW (310°)16.1 mphLight Drizzle
12:30 PM39.2 °F32.0 °F75 %29.86 in6.2 miNW (310°)16.1 mphMostly Cloudy
1:00 PM39.2 °F32.0 °F75 %29.89 in6.2 miNW (320°)16.1 mphMostly Cloudy
1:20 PM39.2 °F32.0 °F75 %29.89 in6.2 miNW (310°)16.1 mphMostly Cloudy
1:30 PM39.2 °F32.0 °F75 %29.89 in6.2 miNW (310°)16.1 mphMostly Cloudy
1:55 PM39.2 °F28.4 °F65 %29.89 in6.2 miNNW (340°)20.7 mphScattered Clouds
2:30 PM39.2 °F26.6 °F61 %29.89 in6.2 miNNW (330°)23.0 mphScattered Clouds
2:55 PM35.6 °F24.8 °F65 %29.95 in6.2 miWest (280°)23.0 mphScattered Clouds
3:30 PM35.6 °F24.8 °F65 %29.95 inNNW (340°)20.7 mphClear
3:30 PM36.0 °F24.0 °F49 %30.03 in12.0 miNNW (340°)20.1 mphPartly Cloudy
3:55 PM33.8 °F23.0 °F65 %29.98 inWNW (300°)23.0 mphClear
4:20 PM33.8 °F21.2 °F60 %29.98 inWNW (290°)23.0 mphClear
4:30 PM33.8 °F21.2 °F60 %29.98 inWNW (290°)23.0 mphClear
4:55 PM32.0 °F21.2 °F64 %30.04 inNW (310°)25.3 mphClear
5:30 PM32.0 °F21.2 °F64 %30.04 inWNW (300°)25.3 mphClear
6:00 PM32.0 °F21.2 °F64 %30.06 inWNW (290°)18.4 mphClear
6:30 PM32.0 °F21.2 °F64 %30.06 inNW (310°)20.7 mphClear
7:00 PM32.0 °F19.4 °F60 %30.06 inWNW (300°)23.0 mphClear
7:30 PM30.2 °F19.4 °F64 %30.06 inNW (320°)20.7 mphClear
8:00 PM30.2 °F17.6 °F60 %30.09 inWNW (290°)13.8 mphClear
8:30 PM30.2 °F19.4 °F64 %30.09 inWNW (290°)11.5 mphClear
8:55 PM30.2 °F17.6 °F60 %30.09 inWNW (300°)6.9 mphClear
9:30 PM30.2 °F17.6 °F60 %30.09 inWNW (290°)11.5 mphClear
9:30 PM31.0 °F17.0 °F44 %30.23 in9.0 miWNW (290°)11.2 mph
10:00 PM30.2 °F17.6 °F60 %30.15 inCalmClear
10:20 PM30.2 °F17.6 °F60 %30.15 inCalmClear
10:30 PM30.2 °F17.6 °F60 %30.15 inCalmClear
11:00 PM30.2 °F17.6 °F60 %30.15 inWNW (300°)6.9 mphClear
11:30 PM30.2 °F17.6 °F60 %30.18 inNW (310°)6.9 mphClear
Hourly data recorded from OIMM, located miles away from Mashhad, Iran







STORIES FROM OUR PARTNERS